Weather History for Peru, IN

Change the Weather History Date:

Thursday, February 7, 2013

  Actual Average Record
Temperature  
Mean Temperature 38 °F -  
Max Temperature 47 °F 34 °F 54 °F (2009)
Min Temperature 30 °F 22 °F -12 °F (2014)
Degree Days  
Heating Degree Days 26    
Moisture  
Dew Point 34 °F    
Average Humidity 88    
Maximum Humidity 100    
Minimum Humidity 71    
Precipitation  
Precipitation 0.03 in - - ()
Sea Level Pressure  
Sea Level Pressure 30.00 in    
Wind  
Wind Speed 8 mph (SE)    
Max Wind Speed 14 mph    
Max Gust Speed -    
Visibility 9 miles    
Events Rain    
Averages and records for this station are not official NWS values.
T = Trace of Precipitation, MM = Missing Value Source: NWS Daily Summary

Daily Weather History Graph

Daily Weather History Graph

Search for Another Location

Airport:

Trip Planner

Search our weather history database for the weather conditions in past years. The results will help you decide how hot, cold, wet, or windy it might be!

Date:

Astronomy

Feb. 07, 2013 Rise Set
Actual Time 7:47 AM EST 6:10 PM EST
Civil Twilight 7:19 AM EST 6:38 PM EST
Nautical Twilight 6:47 AM EST 7:11 PM EST
Astronomical Twilight 6:15 AM EST 7:42 PM EST
Moon 5:27 AM EST (2/7) 3:33 PM EST (2/7)
Length of Visible Light 11h 19m
Length of Day
10h 22m
Waning Crescent, 9% of the Moon is Illuminated
Feb 7
Waning Crescent
Feb 10
New
Feb 17
First Quarter
Feb 25
Full
Mar 4
Last Quarter

Hourly Weather History & Observations

Time (EST) Temp. Windchill Dew Point Humidity Pressure Visibility Wind Dir Wind Speed Gust Speed Precip Events Conditions
12:55 AM 30.9 °F 27.5 °F 27.3 °F 86% 30.21 in 10.0 mi SE 3.5 mph - N/A   Scattered Clouds
1:55 AM 30.6 °F 23.8 °F 27.7 °F 89% 30.19 in 10.0 mi ESE 6.9 mph - N/A   Mostly Cloudy
2:55 AM 30.2 °F 21.3 °F 28.0 °F 92% 30.16 in 10.0 mi SE 10.4 mph - N/A   Mostly Cloudy
3:55 AM 30.2 °F 20.2 °F 27.9 °F 91% 30.14 in 10.0 mi SE 12.7 mph - N/A   Scattered Clouds
4:55 AM 30.4 °F 21.0 °F 28.0 °F 91% 30.13 in 10.0 mi SE 11.5 mph - N/A   Overcast
5:17 AM 30.2 °F 25.4 °F 28.4 °F 93% 30.15 in 9.0 mi SE 4.6 mph - N/A   Mostly Cloudy
5:22 AM 30.2 °F 22.6 °F 28.4 °F 93% 30.15 in 9.0 mi SE 8.1 mph - N/A   Mostly Cloudy
5:32 AM 30.2 °F 23.4 °F 28.4 °F 93% 30.16 in 9.0 mi SE 6.9 mph - N/A   Mostly Cloudy
5:55 AM 30.4 °F 22.9 °F 28.0 °F 91% 30.15 in 9.0 mi ESE 8.1 mph - N/A   Mostly Cloudy
6:02 AM 30.2 °F 23.4 °F 28.4 °F 93% 30.15 in 9.0 mi East 6.9 mph - N/A   Mostly Cloudy
6:12 AM 30.2 °F 22.6 °F 28.4 °F 93% 30.14 in 9.0 mi ESE 8.1 mph - N/A   Scattered Clouds
6:55 AM 30.2 °F 22.6 °F 28.0 °F 92% 30.14 in 5.0 mi East 8.1 mph - N/A   Overcast
7:55 AM 30.2 °F 23.4 °F 28.2 °F 92% 30.13 in 5.0 mi ESE 6.9 mph - N/A   Overcast
8:55 AM 31.5 °F 24.9 °F 28.6 °F 89% 30.12 in 7.0 mi East 6.9 mph - N/A   Mostly Cloudy
9:55 AM 32.7 °F 26.4 °F 28.9 °F 86% 30.12 in 8.0 mi East 6.9 mph - N/A   Mostly Cloudy
10:32 AM 35.6 °F 28.0 °F 32.0 °F 87% 30.10 in 9.0 mi ESE 10.4 mph - N/A   Mostly Cloudy
10:55 AM 36.0 °F 28.0 °F 31.3 °F 83% 30.09 in 10.0 mi ESE 11.5 mph - N/A   Mostly Cloudy
11:55 AM 38.8 °F 31.6 °F 33.1 °F 80% 30.07 in 10.0 mi ESE 11.5 mph - N/A   Clear
12:55 PM 41.9 °F 35.4 °F 35.1 °F 77% 30.02 in 10.0 mi ESE 11.5 mph - N/A   Clear
1:27 PM 44.6 °F 38.8 °F 35.6 °F 71% 30.00 in 10.0 mi ESE 11.5 mph - N/A   Clear
1:28 PM 44.6 °F 38.8 °F 35.6 °F 71% 30.00 in 10.0 mi ESE 11.5 mph - N/A   Clear
1:55 PM 44.4 °F 39.0 °F 36.3 °F 73% 29.99 in 9.0 mi SE 10.4 mph - 0.00 in   Clear
2:55 PM 46.2 °F 41.7 °F 37.8 °F 72% 29.94 in 10.0 mi ESE 9.2 mph - N/A   Scattered Clouds
3:55 PM 47.8 °F - 39.0 °F 71% 29.91 in 10.0 mi ESE 8.1 mph - N/A   Scattered Clouds
4:55 PM 47.5 °F - 40.1 °F 76% 29.88 in 10.0 mi ESE 8.1 mph - N/A   Mostly Cloudy
5:55 PM 42.1 °F 36.6 °F 37.9 °F 85% 29.87 in 10.0 mi ESE 9.2 mph - N/A   Scattered Clouds
6:55 PM 40.1 °F 34.7 °F 34.5 °F 80% 29.84 in 10.0 mi SE 8.1 mph - N/A   Mostly Cloudy
7:55 PM 41.4 °F 37.6 °F 35.4 °F 79% 29.82 in 10.0 mi SSE 5.8 mph - N/A   Overcast
8:37 PM 42.8 °F 37.5 °F 35.6 °F 76% 29.82 in 10.0 mi South 9.2 mph - N/A Rain Light Rain
8:55 PM 41.7 °F 36.7 °F 38.1 °F 87% 29.83 in 10.0 mi NW 8.1 mph - 0.00 in Rain Light Rain
9:52 PM 41.0 °F 35.2 °F 39.2 °F 93% 29.83 in 10.0 mi West 9.2 mph - N/A Rain Light Rain
9:55 PM 40.3 °F 34.4 °F 39.0 °F 95% 29.83 in 8.0 mi WSW 9.2 mph - 0.02 in Rain Light Rain
10:30 PM 39.2 °F 33.0 °F 39.2 °F 100% 29.82 in 6.0 mi West 9.2 mph - N/A   Light Drizzle
10:41 PM 39.2 °F 32.5 °F 39.2 °F 100% 29.82 in 5.0 mi West 10.4 mph - N/A   Overcast
10:55 PM 39.6 °F 32.1 °F 39.6 °F 100% 29.82 in 5.0 mi West 12.7 mph - 0.00 in   Overcast
11:11 PM 39.2 °F 31.6 °F 39.2 °F 100% 29.81 in 6.0 mi West 12.7 mph - N/A   Light Drizzle
11:37 PM 39.2 °F 31.2 °F 39.2 °F 100% 29.82 in 6.0 mi West 13.8 mph - N/A   Overcast
11:39 PM 39.2 °F 31.2 °F 39.2 °F 100% 29.82 in 7.0 mi West 13.8 mph - N/A   Light Drizzle
11:55 PM 37.9 °F 30.0 °F 37.9 °F 100% 29.82 in 7.0 mi West 12.7 mph - 0.01 in Rain Light Rain